Flag for U.S.A. Weather past 2 weeks in Modesto, California, U.S.A.

Now
64 °F

Sunny.


Feels Like: 64 °F
Forecast: 59 / 83 °F
Wind: 6 mph from Northwest

Location: Modesto City-County-Sham Field

Current Time: Sep 3, 2015 at 8:19:41 AM

Latest Report: Sep 3, 2015 at 7:53 AM


Visibility: 10 mi

Pressure: 29.90 "Hg

Humidity: 63%

Dew point: 51 °F

Location of ModestoLocation

Historic Weather in Modesto — Graph

°F

Modesto temperature yesterday

Maximum temperature yesterday: 88 °F (at 3:53 PM)
Minimum temperature yesterday: 62 °F (at 6:53 AM)
Average temperature yesterday: 73 °F

Past Weeks' High & Low Weather Summary

 TemperatureHumidityPressure
High104 °F (Aug 28, 3:53 PM)78% (Aug 20, 5:53 AM)30.01 "Hg (Aug 20, 5:53 AM)
Low59 °F (Sep 3, 6:53 AM)13% (Aug 24, 3:53 PM)29.75 "Hg (Aug 20, 6:53 PM)
Average78 °F43%29.88 "Hg
* Reported Aug 19 6:53 AM — Sep 3 6:53 AM, Modesto, Weather by CustomWeather, © 2015

Note: Actual official high and low records may vary slightly from our data, if they occured in-between our weather recording intervals... More about our weather records

Advertising

Modesto weather history for previous 24 hours

 ConditionsComfort  
Time TempWeatherWind HumidityBarometerVisibility
6:53 AM
Thu, Sep 3
59 °FClear.3 mph75%29.88 "Hg10 mi
5:53 AM60 °FClear.3 mph75%29.86 "Hg10 mi
4:53 AM61 °FClear.No wind72%29.86 "Hg10 mi
3:53 AM63 °FClear.N/A68%29.86 "Hg10 mi
2:53 AM64 °FClear.No wind63%29.85 "Hg10 mi
1:53 AM65 °FClear.5 mph63%29.86 "Hg10 mi
12:53 AM66 °FClear.3 mph61%29.86 "Hg10 mi
11:53 PM
Wed, Sep 2
67 °FClear.5 mph59%29.86 "Hg10 mi
10:53 PM68 °FClear.8 mph57%29.85 "Hg10 mi
9:53 PM70 °FClear.8 mph53%29.85 "Hg10 mi
8:53 PM71 °FClear.12 mph51%29.84 "Hg10 mi
7:53 PM73 °FSunny.17 mph51%29.82 "Hg10 mi
6:53 PM78 °FSunny.20 mph42%29.81 "Hg10 mi
5:53 PM82 °FSunny.20 mph35%29.81 "Hg10 mi
4:53 PM86 °FSunny.16 mph25%29.82 "Hg10 mi
3:53 PM88 °FSunny.14 mph24%29.82 "Hg10 mi
2:53 PM87 °FSunny.6 mph26%29.84 "Hg10 mi
1:53 PM85 °FSunny.9 mph30%29.86 "Hg10 mi
12:53 PM84 °FSunny.N/A30%29.88 "Hg10 mi
11:53 AM81 °FSunny.N/A33%29.89 "Hg10 mi
10:53 AM77 °FSunny.N/A39%29.90 "Hg10 mi
9:53 AM72 °FSunny.8 mph52%29.89 "Hg10 mi
8:53 AM69 °FSunny.6 mph57%29.89 "Hg10 mi
Weather by CustomWeather, © 2015

See weather overviewHow to use our weather pages